Location: Spor
(46.2167°N, 11.0500°E)
Time: 13:18:29
(UTC+00:00)

UNK - Pass Details

Date: 07 June 2020
Orbit: 667 x 686 km, 98.1° (Epoch: 13 July)

Event Time Altitude Azimuth Distance (km) Brightness Sun altitude
Exits shadow 01:11:42 26° 184° (S) 1,330 4.7 -16.1°
Maximum altitude 01:14:14 63° 258° (WSW) 748 3.7 -15.9°
Drops below altitude 10° 01:18:48 10° 340° (NNW) 2,105 6.9 -15.5°
Sets 01:21:04 0° 344° (NNW) 3,022 7.8 -15.3°
